STARLINK-32841, 62865

Orbit data source: Space-Track

STARLINK-32841, 62865 is a payload satellite owned by SpaceX/Seattle (US) in LEO that was launched on Sat, 01 Feb 2025 UTC via an FALCON 9 launch vehicle from the Air Force Western Test Range (AFWTR). Payload-class satellites include a variety of spacecraft equipped with specific instruments for various scientific and technological missions. These include communications satellites like Starlink; space stations such as the ISS; scientific satellites like the Hubble; Earth observation satellites from companies like Planet Labs, Umbra, and HawkEye 360; GPS; miniature CubeSats for education and research; and military/defense satellites.

Loading next visibility...
Identifier
62865, 2025-022M
Orbit
LEO
Country
Flag of USUS
Related business
Manufacturer
SpaceX/Seattle
Mission
Operational Commercial Communications
Bus & Motor
STARLINK V2M, Unknown motor
Mass
730 kg wet, ~700 kg dry
Launch date (UTC)
2025-02-01 (7 months ago)
Launch vehicle
FALCON 9
Launch site
Air Force Western Test Range (AFWTR)
Object type
Payload
Rocket body
Debris
Shape & HBR
Box + 2 Pan, 14.5 m
Radar Cross Section
33.884 m², Large (>1 m²)

Expand to show TLE details & history
Last TLE update: 10 hours ago

TLE from 10 hours ago
0 STARLINK-32841
1 62865U 25022M   25259.19250324  .00025160  00000-0  85851-3 0  9991
2 62865  53.1541 220.1477 0001233  57.7443 302.3677 15.30208642 35175
Epoch: 2025-09-16T04:37Z
TLE epoch observation values (Epoch: 2025-09-16T04:37:12.279Z)
Latitude
-0.00005°
Longitude
155.46017°
Altitude
475.636 km
Speed
7.629 km/s
True Right ascension
14h 40m 35s
True Declination
0° 00' 00"
Sunlit
Object was in daylight at epoch
Visualization orbit readout
Latitude
Unknown
Longitude
Unknown
Altitude
Unknown
Speed
Unknown
Apparent Right ascension
Unknown
Apparent Declination
Unknown
Sunlit
N/A
Visualization observer readout
Local Sidereal Time
07:38:43
Azimuth
Unknown
Elevation
Unknown
Doppler factor
Unknown
Orbital elements
Apogee altitude
476.292 km
Perigee altitude
474.602 km
Semi-major axis
6,853.584 km
Eccentricity
0.00012
Inclination
53.1541°
RAAN
220.1477°
Arg. of periapsis
57.7443°
True anomaly
302.35577°
Mean anomaly
302.3677°
Eccentric anomaly
302.36173°
Mean motion
3.82531 °/min
Orbital period
94.11 mins
BSTAR
0.00085851
Loading maneuver chart data...
Computing Atmospheric mass density...
Loading historical data...
Loading historical data...
Loading historical data...
Loading historical data...
Loading historical data...
Loading historical data...
Loading historical data...

Documentation

Showing up to 5 results
|